Location: Pasadena, ca
(34.1243°N, 118.1037°W)
Time: 08:57:44
(UTC-07:00)

Hubble Space Telescope - Visible Passes

Search period start: 24 September 2017 00:00
Search period end: 04 October 2017 00:00
Orbit: 538 x 541 km, 28.5° (Epoch: 23 September)

Date Brightness Start Highest point End Pass type
(mag) Time Alt. Az. Time Alt. Az. Time Alt. Az.
29 Sep 3.4 05:29:03 10° S 05:30:35 12° SSE 05:32:07 10° SE visible
30 Sep 3.1 05:18:22 11° S 05:20:19 15° SSE 05:22:38 10° SE visible
01 Oct 2.8 05:09:00 16° S 05:10:04 18° SSE 05:12:52 10° ESE visible
02 Oct 2.6 04:59:35 21° SSE 04:59:49 21° SSE 05:02:58 10° ESE visible
03 Oct 2.5 04:50:08 23° SSE 04:50:08 23° SSE 04:52:58 10° ESE visible
